Temperature
24 23 21 21 20 21 24 28 30 30 30 29 29 28 27 26 25 23 23 23 23 23 22 21 21 21 21 21 21 21 21 21 21 21 21 21 21 20 20 20 20 20 20 21 21 21 21 21 21
24 23 22 21 22 23 26 29 29 29 29 29 29 28 27 24 23 23 22 23 23 23 22 21 21 21 21 21 21 21 21 21 21 21 21 21 21 21 21 20 20 21 21 21 21 21 21 21 21
25 23 22 21 23 24 26 28 27 29 30 30 28 28 27 24 23 23 23 23 23 23 23 22 21 21 21 21 21 21 21 21 21 21 21 21 21 21 21 21 21 21 21 21 21 21 21 21 21
25 24 23 22 25 26 27 27 27 28 28 29 28 27 26 25 25 25 24 23 24 24 23 22 22 21 21 21 21 21 21 21 21 21 21 21 21 21 21 21 21 21 21 21 21 21 21 21 20
25 24 23 23 25 27 28 28 28 27 27 27 27 25 25 26 26 25 24 24 24 24 23 22 22 22 21 21 21 21 21 21 21 21 21 21 20 20 20 20 20 20 20 20 20 20 20 20 20
25 23 23 23 26 28 27 27 27 26 26 26 26 25 24 25 26 25 24 24 25 25 24 23 22 22 22 21 21 21 21 21 21 21 21 21 20 20 20 20 20 20 20 20 20 20 20 20 20
26 23 24 25 26 27 28 27 27 26 26 26 26 24 23 23 25 25 24 24 24 24 24 23 23 22 22 21 21 21 21 21 21 21 21 20 20 20 20 20 20 20 20 20 20 20 20 20 19
28 23 25 25 27 27 28 27 27 26 26 27 27 25 24 23 24 24 24 24 24 24 24 24 23 23 22 22 21 21 21 21 21 21 21 20 20 20 20 20 20 19 19 19 20 20 20 20 20
28 23 23 25 27 27 28 27 27 27 27 27 27 27 27 25 24 24 23 24 24 24 24 24 23 23 22 22 22 21 21 21 21 21 20 20 20 20 20 19 19 19 19 19 19 19 19 19 19
26 22 24 27 28 28 28 28 27 26 26 26 26 28 27 26 25 24 24 24 24 24 24 24 24 23 23 22 22 21 21 21 21 21 20 20 20 20 19 19 19 18 18 18 18 19 19 19 19
26 25 26 28 30 30 29 29 28 26 25 25 26 27 27 27 26 25 24 24 24 24 24 23 23 23 23 22 22 21 21 21 21 20 20 20 19 19 19 19 19 18 18 18 18 18 18 18 18
27 26 28 30 31 30 29 30 29 27 28 29 29 29 28 27 26 26 25 24 24 23 23 23 23 23 22 22 22 21 21 20 20 20 20 19 19 19 19 19 18 18 18 18 18 18 18 18 18
27 27 29 30 30 31 31 30 29 29 30 29 28 28 28 27 27 26 25 24 23 22 22 21 21 22 22 21 21 21 20 20 20 19 19 19 19 19 18 18 18 18 18 18 18 18 18 18 18
26 27 28 29 30 31 29 29 28 28 28 27 27 27 27 27 26 25 24 23 22 21 21 21 20 20 20 20 21 20 20 19 19 19 19 19 19 18 18 18 18 18 18 18 18 18 18 18 18
27 25 25 27 28 29 29 27 28 29 27 26 25 25 25 25 24 23 23 22 21 21 21 20 20 20 19 20 20 20 19 19 19 19 19 19 18 18 18 18 18 17 17 17 17 17 17 17 17
25 25 24 26 26 28 28 26 27 28 26 25 24 24 23 23 22 22 22 21 21 20 20 20 20 19 19 19 19 19 19 19 19 19 19 19 18 18 18 18 17 17 17 17 17 17 17 17 17
23 23 24 26 27 27 27 25 26 26 25 23 23 22 22 21 21 21 20 20 20 20 19 19 19 18 18 18 19 19 19 19 19 19 19 19 19 18 18 18 17 17 17 17 17 17 17 17 17
23 24 25 25 27 27 25 23 22 22 22 21 20 20 19 18 18 19 19 19 19 20 19 19 18 17 17 18 18 18 19 19 19 19 19 19 19 19 18 18 17 17 17 17 17 16 16 16 16
26 26 26 27 28 25 22 21 20 19 18 18 18 17 16 16 17 17 18 18 19 19 19 19 18 17 17 17 18 18 18 19 19 19 19 19 19 19 18 18 18 17 17 17 16 16 16 16 16
26 26 25 26 27 25 21 20 18 18 17 16 16 15 15 15 16 17 17 18 18 18 18 18 17 16 16 17 17 18 18 19 19 19 19 19 19 19 18 18 18 17 17 17 16 16 16 16 16
27 26 26 26 25 24 23 20 18 17 17 16 15 14 14 14 14 15 16 16 17 17 17 17 17 16 16 17 17 18 18 18 19 19 18 18 19 19 18 18 18 18 17 17 17 16 16 16 15
25 27 27 26 23 21 22 19 18 17 16 16 15 14 14 14 14 15 15 15 15 15 15 16 16 16 16 17 17 17 18 18 18 18 18 18 18 18 18 18 18 18 18 17 17 16 16 16 15
27 27 26 24 23 21 20 19 17 17 16 15 15 14 14 14 14 15 15 15 15 15 15 15 15 15 16 16 17 17 17 18 18 18 18 18 18 18 18 18 18 18 18 17 17 17 16 16 16
26 24 22 19 18 20 19 19 17 16 15 15 15 15 14 15 15 15 15 15 15 15 15 15 15 15 15 15 16 16 16 16 17 17 17 17 17 17 17 17 17 17 17 17 17 17 16 16 16
25 21 19 20 18 18 18 18 16 16 16 16 15 15 15 15 15 15 15 15 15 15 15 15 15 15 14 14 15 15 15 15 15 15 15 16 16 16 17 17 17 17 17 17 17 17 16 16 16
25 21 20 20 20 18 18 17 16 16 16 16 16 16 15 15 15 15 15 15 15 15 15 15 14 14 14 14 14 14 13 13 13 13 14 14 14 15 15 16 16 16 16 16 16 16 16 16 16
25 23 21 19 20 18 17 16 16 16 16 16 16 16 16 15 15 15 15 15 15 14 14 14 14 14 13 13 13 13 13 13 13 13 12 13 13 13 13 14 14 15 15 15 15 16 16 16 15
24 23 19 19 19 19 18 17 16 15 15 16 15 16 16 16 15 15 15 15 15 14 14 13 13 13 13 12 12 12 12 12 11 11 12 12 12 12 12 13 13 13 14 14 14 15 15 15 15
24 22 19 18 18 18 18 17 17 15 15 15 15 16 16 16 15 15 15 15 14 14 13 13 13 12 12 12 12 12 11 11 11 11 11 11 11 11 11 11 12 12 13 13 13 14 14 14 15
24 23 20 19 19 17 17 16 17 16 15 16 16 16 16 15 15 15 15 14 14 13 13 13 12 12 12 12 11 11 11 11 11 10 10 10 10 10 10 10 11 11 12 12 12 13 13 14 14
Wind_Speed
9 9 4 2 1 1 4 5 1 5 5 7 10 10 9 5 4 4 6 18 21 20 19 22 22 21 22 23 22 21 20 20 19 19 19 18 18 17 17 17 17 16 15 15 14 13 13 12 12
6 6 3 1 1 3 5 4 7 6 7 9 9 8 7 6 7 10 8 18 23 20 18 21 23 23 23 23 22 21 21 20 19 19 18 18 18 17 16 16 16 15 14 14 14 13 12 12 11
4 5 4 1 1 2 4 6 8 7 4 4 5 5 5 7 10 7 10 20 19 16 17 21 25 24 24 23 22 22 21 20 20 19 18 18 17 17 16 16 15 15 14 14 13 13 12 11 10
3 3 1 2 4 5 2 4 7 12 8 8 6 5 4 6 8 11 19 20 19 15 16 22 25 24 23 23 22 22 21 20 20 19 18 18 17 17 16 16 15 14 14 13 12 12 11 11 10
3 3 2 2 6 4 2 1 6 9 8 6 5 5 4 4 17 22 21 20 19 14 14 21 24 24 23 23 22 22 21 20 20 19 18 17 16 16 15 15 14 14 13 13 12 12 11 10 10
2 4 2 3 5 1 2 3 6 2 3 5 5 4 3 11 19 21 20 18 18 18 14 18 24 24 23 23 22 21 21 20 19 19 18 17 16 15 15 14 14 14 13 13 13 12 12 12 11
4 2 3 5 5 3 5 4 6 3 1 2 2 3 4 11 16 18 17 16 16 16 14 12 18 21 23 22 22 21 20 20 19 18 18 17 17 16 15 15 15 15 14 14 14 14 13 13 13
6 3 3 3 5 4 4 4 5 8 4 1 2 6 6 11 15 16 16 15 15 14 14 12 13 16 17 18 21 21 20 19 19 18 18 17 17 16 16 15 15 15 15 16 16 16 16 15 15
3 2 4 5 4 5 3 3 3 4 7 4 4 7 11 17 18 17 15 13 14 15 13 12 11 11 13 14 18 19 19 19 19 18 18 17 14 14 14 15 16 17 17 18 18 18 17 16 16
5 4 9 8 6 5 4 5 8 6 7 4 3 6 15 19 20 21 20 20 19 18 16 13 13 12 11 13 14 13 15 15 16 14 15 15 13 14 14 15 19 20 20 20 20 19 18 16 13
5 7 8 10 10 5 4 5 8 11 8 11 15 18 20 18 18 20 20 20 20 19 17 15 14 12 12 9 9 9 11 11 13 14 15 13 11 11 12 10 13 16 18 16 16 17 14 12 11
6 10 9 8 7 3 4 3 4 10 14 17 21 22 21 18 18 18 17 16 15 15 14 14 14 13 13 9 8 8 7 7 8 13 15 11 6 6 7 6 7 8 9 8 8 7 9 11 13
6 7 8 8 8 5 5 4 4 7 9 14 15 15 17 17 14 12 9 9 10 10 8 8 9 11 12 11 9 9 8 8 9 11 14 13 8 8 7 5 5 5 6 4 4 5 7 7 7
7 10 12 10 10 6 5 7 3 7 9 15 15 14 13 10 7 5 6 8 8 7 4 4 7 7 7 9 8 7 7 6 7 8 12 14 9 6 6 5 4 3 4 5 4 5 6 5 5
7 9 12 11 9 8 6 9 8 7 11 14 13 11 6 2 6 8 9 9 9 8 6 4 3 3 5 8 9 7 6 6 6 6 10 11 10 7 5 4 4 4 4 4 3 4 3 4 4
7 6 8 13 8 10 2 9 12 3 12 11 9 7 4 6 9 11 13 14 12 12 11 7 3 5 8 6 6 4 4 5 5 5 7 9 9 8 4 4 4 3 3 2 3 2 2 3 3
4 5 10 13 8 6 5 4 7 3 9 6 4 4 6 8 12 14 15 15 13 13 13 13 13 9 8 6 3 2 3 5 4 4 5 7 8 8 5 4 3 3 2 1 1 1 2 2 3
7 6 6 8 8 6 9 10 14 15 12 10 9 8 10 14 14 12 12 11 11 10 10 9 10 12 8 4 3 2 1 1 2 4 5 7 7 8 5 4 4 3 3 1 1 1 1 2 2
6 4 4 5 7 11 16 18 21 21 21 19 16 14 15 13 10 9 9 8 7 7 7 8 7 9 6 4 4 1 2 1 2 4 6 7 7 7 6 5 4 4 3 2 2 1 1 1 1
4 4 4 5 8 8 15 18 19 23 22 19 18 16 12 10 10 10 8 7 7 5 5 6 5 4 4 4 3 2 2 2 3 4 4 6 7 7 7 7 5 5 3 2 1 2 1 1 0
5 3 4 4 5 7 7 9 14 16 19 19 18 15 13 11 10 9 9 8 8 9 9 9 7 5 5 5 3 2 1 2 1 1 3 5 7 7 7 8 7 6 4 3 3 3 4 2 2
5 5 3 4 4 3 4 2 6 8 15 16 15 12 11 10 9 9 10 10 10 9 9 9 7 8 8 7 5 4 2 2 2 2 3 4 6 7 7 9 8 7 5 5 4 4 4 4 2
4 4 3 3 1 1 4 5 1 4 9 11 9 9 8 7 8 9 9 9 9 9 8 7 7 8 9 9 9 7 6 4 4 3 3 2 3 5 7 8 8 8 6 6 6 5 4 4 4
1 6 8 7 5 3 4 4 1 3 3 5 5 5 4 5 6 7 7 7 6 6 6 6 6 7 8 9 9 9 8 7 7 6 5 4 3 3 5 7 8 8 7 7 7 6 6 5 5
6 7 6 7 6 3 1 4 2 4 5 6 5 4 3 3 3 4 4 4 3 3 3 4 5 5 6 6 7 6 7 7 7 7 6 5 4 4 5 4 6 7 8 8 7 7 6 6 6
2 8 6 3 4 3 2 1 3 5 4 4 4 5 4 3 2 3 3 3 2 2 2 1 2 2 3 4 4 4 4 4 4 5 5 6 5 5 6 5 4 6 8 9 8 6 7 6 7
1 1 6 6 0 1 1 1 2 5 5 5 4 4 4 3 3 2 3 4 5 5 4 3 2 2 3 3 3 4 4 4 5 6 5 5 5 6 7 7 6 5 6 8 8 7 8 7 7
3 2 6 4 1 2 2 4 5 8 8 7 5 4 3 2 2 3 4 5 6 6 6 5 4 5 5 6 6 5 6 6 6 5 6 6 6 6 7 7 7 7 6 6 7 7 7 8 8
5 5 5 3 4 3 2 5 4 8 7 5 4 3 2 2 4 6 7 6 6 5 5 5 6 7 7 8 8 8 8 8 7 6 7 7 6 6 7 7 7 7 8 7 6 8 8 9 9
4 1 4 3 2 2 1 5 3 2 2 3 2 2 3 5 7 8 8 6 4 5 6 7 8 9 10 10 9 10 10 9 9 9 9 8 8 7 7 7 7 8 8 7 7 8 8 9 9
Wind_Direction
158 152 152 154 95 4 278 274 64 50 60 61 78 89 90 76 146 166 144 147 145 153 159 157 156 157 156 155 153 151 150 148 147 144 141 139 138 138 138 139 138 136 135 134 134 133 133 133 132
160 158 152 139 91 358 298 336 38 49 114 117 81 75 79 69 86 112 125 149 147 152 156 156 156 156 157 157 156 156 156 155 154 152 149 147 146 146 146 146 146 145 144 144 144 144 144 144 145
179 176 154 112 305 232 296 350 9 6 83 91 76 52 74 111 120 127 144 145 143 150 154 158 157 158 159 160 160 161 161 161 160 158 157 155 155 155 154 154 154 154 153 154 154 155 156 158 160
158 131 67 68 260 248 244 333 11 2 11 30 85 65 61 120 130 136 140 145 146 152 156 161 160 161 162 163 164 165 166 166 166 164 163 163 163 163 162 162 163 163 163 164 164 165 168 171 174
109 99 60 296 262 250 229 57 33 356 349 8 56 82 45 55 123 136 146 151 152 154 160 164 163 164 165 167 168 170 170 171 170 170 170 170 171 172 172 172 172 173 174 176 177 179 181 186 191
71 82 80 269 269 240 195 178 134 96 352 2 30 65 71 127 133 146 152 156 157 158 163 168 168 168 169 170 172 174 175 176 176 176 176 177 179 181 182 183 184 185 187 189 192 194 196 199 204
151 125 226 249 281 259 204 182 138 135 284 289 125 88 114 149 150 153 155 156 158 161 166 170 172 173 174 175 177 179 180 181 182 183 184 186 188 190 192 194 196 198 200 202 203 206 209 210 213
160 113 284 281 296 275 203 165 148 150 178 210 162 149 168 175 158 156 157 158 160 165 172 175 174 174 176 179 183 184 186 187 189 190 192 195 197 200 202 205 208 210 211 213 214 215 217 219 221
135 76 259 251 257 266 204 161 159 156 142 182 196 179 174 161 157 159 160 162 168 174 178 178 176 175 176 179 187 188 191 194 196 198 200 201 205 208 212 216 219 221 222 223 223 223 224 225 228
125 187 241 239 243 252 221 179 166 151 160 178 172 161 157 162 166 170 172 175 178 181 183 183 182 179 176 184 188 191 195 199 200 202 205 204 205 211 218 224 228 229 229 230 230 230 230 231 231
193 219 255 268 266 247 228 217 167 152 185 195 179 174 172 175 178 181 181 183 184 182 182 183 184 183 182 189 185 192 199 200 205 207 209 208 209 217 227 227 236 237 236 233 234 232 229 229 229
273 273 272 274 285 286 256 241 178 186 206 194 183 175 177 184 186 187 184 183 179 176 183 181 183 185 191 194 189 190 197 199 206 212 210 208 211 217 224 224 227 227 227 223 225 223 223 228 232
278 283 299 298 309 303 314 279 246 224 203 179 182 181 186 190 190 187 174 158 154 161 164 174 184 194 198 199 194 194 199 202 204 206 210 209 210 218 220 222 221 220 217 215 217 223 225 224 230
285 303 304 301 305 302 305 300 295 246 177 174 186 194 198 194 179 144 117 102 108 110 109 155 188 199 213 207 197 194 196 201 199 201 208 207 206 208 214 221 222 217 206 202 206 215 222 223 225
311 325 318 300 295 287 331 318 274 230 170 180 192 196 196 132 81 82 82 77 87 88 76 82 205 239 233 220 200 189 184 180 182 191 196 193 193 195 197 206 219 223 216 208 211 223 227 238 236
338 342 305 285 275 271 228 270 283 172 157 178 185 179 153 82 77 76 71 68 64 53 41 31 301 308 286 249 211 183 173 164 170 179 178 180 183 182 175 191 216 220 215 208 219 228 237 246 245
344 290 281 292 283 260 172 246 335 72 137 140 148 137 112 85 68 69 67 69 67 61 47 26 359 332 309 288 257 209 168 160 164 171 174 181 179 178 170 183 203 185 167 199 225 193 198 233 261
268 278 298 312 326 42 75 55 40 43 61 60 58 63 76 68 66 64 62 60 60 59 59 44 19 338 305 308 322 312 331 166 168 181 185 181 179 176 163 165 172 152 132 132 159 191 200 209 239
264 297 325 328 353 54 66 58 47 46 50 46 46 53 67 68 60 50 51 53 55 61 70 67 38 347 336 336 305 308 280 273 235 213 193 184 180 172 159 155 152 141 143 173 191 187 231 266 225
332 1 351 340 8 55 75 69 61 53 55 52 49 52 55 49 43 41 42 45 44 47 72 81 56 2 324 299 283 271 260 251 240 223 200 190 180 171 165 160 162 157 155 173 185 164 172 252 165
340 5 350 347 14 37 91 60 58 58 61 57 53 48 44 45 45 46 52 51 53 48 39 42 32 22 343 325 324 323 339 345 357 265 220 212 192 177 167 172 167 170 171 190 209 195 173 202 250
315 305 342 349 27 348 59 94 53 60 59 56 51 48 42 40 44 47 52 51 49 48 46 41 27 19 4 5 16 22 10 329 298 277 254 235 208 190 179 179 176 179 181 192 210 191 183 178 216
276 312 359 353 72 19 22 107 63 43 53 58 58 57 52 45 50 52 53 52 49 45 44 34 27 22 14 19 24 25 15 341 322 330 318 278 244 222 205 191 186 186 189 196 203 201 203 192 196
35 31 28 39 55 17 327 119 11 44 76 86 83 81 81 68 59 59 56 55 48 44 46 43 34 23 14 22 27 24 17 1 357 352 343 325 306 282 252 218 201 196 194 199 203 206 210 213 214
50 64 22 360 5 290 314 98 155 138 142 133 139 149 139 113 101 90 79 68 59 49 39 35 37 20 12 17 19 16 9 4 359 346 336 332 326 313 297 262 223 207 201 201 199 202 216 217 219
257 130 146 213 245 266 1 131 188 176 181 163 161 154 150 150 145 132 141 156 173 170 156 97 39 2 352 2 355 351 351 346 332 329 326 323 317 307 313 309 268 231 211 205 201 206 216 215 220
316 276 173 150 93 88 215 151 250 211 206 198 188 158 148 155 154 164 193 205 209 206 203 196 198 263 288 293 297 301 308 309 305 306 307 309 312 318 328 326 317 288 243 221 207 212 217 216 221
125 127 64 69 59 327 266 223 216 205 219 211 195 179 177 183 203 226 234 231 221 208 208 209 214 234 250 257 258 260 261 268 276 287 296 299 301 310 317 320 317 309 287 250 228 223 222 220 226
12 34 84 101 140 144 287 273 224 204 208 191 180 171 196 257 267 265 260 246 229 211 204 210 224 234 245 248 248 250 251 253 257 263 269 275 283 296 303 305 306 304 301 291 261 240 228 225 229
40 23 120 120 326 104 147 282 305 183 147 112 68 7 314 298 289 284 283 275 262 247 241 235 236 238 242 245 248 250 251 251 253 256 260 263 268 274 279 286 294 297 298 299 291 275 255 234 229
Height
1513 1513 1513 1515 1517 1520 1515 1495 1482 1479 1479 1481 1480 1481 1485 1489 1494 1502 1498 1499 1503 1506 1510 1514 1517 1519 1521 1523 1524 1524 1525 1526 1528 1529 1530 1531 1533 1534 1535 1536 1537 1538 1539 1540 1541 1542 1543 1544 1544
1512 1512 1514 1515 1518 1524 1512 1492 1487 1483 1483 1482 1482 1484 1487 1491 1491 1492 1495 1500 1503 1506 1509 1513 1516 1519 1520 1522 1523 1524 1525 1526 1527 1529 1530 1531 1533 1534 1535 1536 1537 1538 1539 1540 1541 1542 1543 1544 1545
1512 1512 1513 1514 1517 1519 1509 1495 1493 1488 1484 1481 1485 1487 1489 1492 1492 1493 1496 1500 1504 1506 1509 1513 1516 1518 1520 1522 1523 1524 1525 1526 1527 1529 1530 1531 1532 1533 1535 1536 1537 1538 1539 1540 1541 1542 1542 1543 1545
1511 1512 1513 1516 1516 1506 1499 1494 1491 1493 1489 1487 1487 1490 1492 1494 1494 1496 1498 1501 1504 1506 1509 1512 1515 1517 1519 1521 1522 1523 1524 1526 1527 1528 1529 1531 1532 1533 1534 1535 1536 1537 1538 1539 1540 1541 1542 1542 1543
1509 1510 1515 1519 1511 1499 1493 1492 1492 1496 1494 1493 1490 1492 1494 1495 1495 1497 1500 1502 1504 1506 1509 1512 1514 1517 1518 1520 1521 1523 1524 1525 1526 1528 1529 1530 1531 1532 1533 1534 1535 1536 1537 1537 1538 1539 1540 1541 1542
1508 1508 1520 1523 1508 1496 1493 1491 1490 1494 1497 1497 1495 1495 1496 1496 1496 1498 1500 1503 1505 1506 1508 1511 1513 1516 1518 1519 1521 1522 1524 1525 1526 1527 1528 1529 1531 1532 1532 1533 1534 1534 1535 1536 1537 1537 1538 1539 1540
1507 1510 1517 1512 1506 1497 1492 1490 1490 1494 1495 1497 1495 1496 1498 1498 1498 1499 1501 1503 1505 1506 1508 1510 1512 1514 1517 1519 1520 1522 1523 1524 1526 1527 1528 1529 1530 1530 1531 1532 1533 1533 1534 1534 1535 1536 1537 1538 1538
1503 1507 1511 1510 1504 1497 1489 1489 1489 1489 1494 1495 1495 1494 1496 1497 1498 1499 1501 1503 1504 1505 1507 1508 1511 1513 1515 1517 1519 1521 1523 1524 1525 1526 1527 1528 1529 1529 1530 1530 1531 1532 1532 1533 1533 1534 1535 1535 1536
1502 1510 1515 1507 1500 1493 1488 1489 1490 1490 1491 1492 1491 1489 1488 1492 1495 1497 1499 1500 1502 1503 1505 1507 1509 1511 1514 1516 1518 1519 1521 1522 1523 1524 1525 1526 1527 1528 1528 1529 1529 1530 1530 1531 1531 1532 1532 1533 1534
1499 1511 1504 1493 1489 1487 1486 1486 1488 1490 1490 1490 1488 1486 1486 1488 1490 1491 1492 1494 1496 1499 1501 1504 1507 1510 1512 1514 1515 1517 1518 1520 1521 1522 1523 1524 1525 1526 1526 1527 1527 1527 1528 1528 1529 1529 1530 1530 1531
1495 1498 1490 1486 1484 1483 1482 1483 1484 1486 1489 1484 1481 1480 1481 1482 1484 1486 1487 1489 1492 1496 1499 1502 1505 1508 1510 1511 1513 1514 1515 1516 1518 1519 1521 1522 1523 1523 1524 1524 1524 1524 1525 1525 1525 1526 1526 1527 1528
1494 1489 1486 1483 1481 1480 1479 1478 1480 1480 1477 1475 1475 1476 1478 1479 1481 1483 1485 1487 1491 1496 1500 1503 1506 1507 1508 1509 1510 1511 1512 1514 1515 1517 1518 1519 1520 1520 1521 1521 1521 1521 1522 1522 1522 1522 1523 1523 1524
1490 1486 1483 1480 1478 1477 1476 1475 1475 1473 1472 1473 1475 1476 1476 1477 1479 1482 1486 1489 1492 1496 1501 1505 1507 1508 1508 1508 1509 1510 1511 1512 1513 1514 1515 1516 1517 1517 1518 1518 1518 1518 1519 1519 1519 1519 1519 1519 1520
1489 1485 1481 1477 1475 1474 1474 1473 1473 1471 1471 1472 1474 1475 1476 1479 1482 1485 1488 1492 1495 1498 1500 1503 1504 1506 1507 1507 1507 1507 1509 1510 1511 1511 1512 1513 1514 1514 1515 1515 1515 1515 1515 1515 1515 1515 1515 1515 1516
1488 1487 1482 1475 1472 1471 1473 1476 1470 1468 1470 1472 1474 1476 1479 1483 1486 1489 1491 1494 1496 1497 1498 1498 1501 1502 1502 1504 1505 1505 1505 1506 1507 1509 1510 1511 1511 1511 1512 1512 1512 1512 1512 1511 1511 1511 1511 1511 1511
1489 1492 1495 1477 1471 1469 1477 1486 1470 1469 1470 1473 1476 1479 1482 1486 1489 1491 1493 1494 1496 1497 1498 1498 1499 1496 1496 1499 1501 1502 1503 1503 1505 1507 1508 1509 1509 1509 1509 1509 1509 1509 1508 1508 1508 1507 1507 1507 1507
1500 1504 1498 1481 1467 1466 1474 1484 1475 1473 1472 1476 1479 1482 1485 1488 1491 1492 1493 1493 1493 1493 1494 1495 1495 1489 1488 1493 1496 1498 1500 1501 1503 1505 1506 1506 1506 1507 1506 1506 1506 1506 1506 1505 1504 1504 1503 1503 1503
1506 1502 1496 1488 1472 1469 1479 1489 1487 1485 1483 1486 1487 1488 1490 1491 1493 1493 1493 1493 1493 1493 1492 1490 1485 1482 1482 1487 1492 1496 1496 1499 1500 1502 1503 1503 1504 1504 1504 1504 1503 1503 1503 1502 1501 1501 1500 1499 1498
1490 1493 1493 1484 1473 1479 1491 1496 1498 1495 1493 1496 1497 1496 1496 1496 1496 1495 1495 1494 1494 1492 1488 1484 1485 1482 1481 1486 1490 1493 1496 1498 1500 1501 1501 1501 1502 1502 1502 1501 1501 1500 1499 1499 1498 1497 1497 1496 1495
1486 1492 1491 1484 1476 1483 1496 1504 1506 1503 1504 1504 1504 1504 1503 1501 1499 1498 1496 1495 1492 1491 1487 1485 1486 1482 1483 1488 1490 1493 1496 1497 1499 1500 1499 1500 1500 1500 1500 1499 1498 1497 1496 1496 1495 1493 1493 1493 1491
1486 1489 1488 1487 1482 1484 1491 1508 1510 1511 1509 1508 1509 1510 1510 1508 1504 1501 1498 1496 1493 1491 1489 1488 1488 1486 1488 1491 1491 1493 1496 1497 1497 1498 1497 1497 1498 1497 1497 1497 1495 1494 1494 1493 1492 1491 1490 1489 1489
1492 1480 1479 1482 1492 1504 1498 1520 1518 1515 1512 1512 1513 1513 1513 1510 1507 1503 1499 1496 1494 1493 1492 1492 1492 1491 1492 1491 1491 1493 1494 1495 1495 1495 1495 1495 1494 1494 1494 1493 1492 1492 1491 1490 1489 1488 1487 1486 1485
1483 1476 1479 1484 1493 1504 1505 1517 1523 1515 1518 1517 1517 1515 1513 1512 1508 1505 1502 1500 1499 1498 1497 1497 1496 1495 1494 1492 1492 1492 1492 1493 1493 1492 1491 1491 1490 1490 1491 1490 1489 1489 1488 1487 1487 1486 1485 1483 1482
1477 1482 1489 1497 1506 1520 1515 1519 1525 1522 1521 1518 1517 1516 1514 1512 1510 1507 1505 1504 1503 1502 1501 1499 1498 1497 1495 1493 1491 1491 1489 1489 1489 1488 1486 1486 1485 1485 1485 1485 1485 1484 1484 1484 1483 1483 1482 1480 1479
1480 1501 1521 1523 1531 1529 1516 1520 1525 1519 1517 1515 1515 1514 1513 1512 1511 1509 1507 1506 1506 1504 1502 1500 1498 1497 1495 1493 1491 1489 1488 1486 1484 1483 1481 1480 1479 1479 1479 1479 1479 1479 1479 1479 1479 1479 1478 1477 1475
1483 1497 1522 1531 1533 1529 1520 1524 1523 1517 1516 1514 1513 1513 1513 1512 1511 1510 1508 1507 1506 1505 1503 1500 1498 1495 1493 1491 1489 1488 1486 1483 1481 1479 1477 1475 1473 1472 1472 1471 1471 1472 1473 1473 1474 1474 1474 1473 1471
1486 1493 1495 1513 1516 1529 1528 1525 1521 1517 1516 1514 1513 1513 1512 1512 1510 1509 1508 1506 1505 1502 1500 1498 1496 1493 1491 1488 1486 1485 1483 1480 1477 1475 1473 1471 1469 1467 1466 1465 1464 1465 1466 1467 1468 1468 1469 1468 1467
1482 1487 1502 1514 1525 1532 1527 1526 1525 1518 1514 1513 1513 1512 1512 1511 1509 1507 1505 1503 1500 1498 1496 1494 1492 1491 1488 1485 1483 1480 1478 1476 1473 1471 1468 1466 1464 1462 1460 1459 1458 1458 1459 1460 1461 1462 1462 1462 1462
1487 1492 1501 1513 1518 1529 1534 1529 1511 1512 1510 1512 1513 1513 1512 1510 1507 1505 1501 1498 1495 1493 1491 1490 1488 1486 1484 1481 1478 1475 1472 1470 1468 1466 1463 1461 1458 1456 1454 1453 1452 1452 1452 1452 1453 1454 1455 1456 1456
1486 1491 1499 1516 1519 1521 1531 1530 1509 1510 1511 1513 1513 1513 1511 1508 1505 1501 1497 1494 1491 1489 1487 1485 1483 1480 1478 1475 1471 1468 1466 1463 1461 1459 1457 1455 1452 1451 1449 1447 1446 1445 1445 1445 1445 1446 1448 1449 1449